EUTELSAT 9B

Last updated on Thu Nov 21 2024 00:02:43 GMT+0000 (Coordinated Universal Time)

1 41310U 16005A 24324.58234913 .00000063 00000+0 00000+0 0 9998 2 41310 0.0702 79.1973 0004773 177.4514 21.0908 1.00271751 32353
UTC large
Height (km)
Speed (km/s)
/
Latitude / Longitude
Inclination (degrees)
Orbital Period (minutes)
Azimuth
Elevation
Range (km)
Doppler Factor

Next 0 passes for location: London (51.5072 / 0.1276)

Sorry there are no passes over London.